"Pseudo-MPEC" for A1189Fj

Created 2024 Jul 12 7:22:02 UT using Find_Orb

Click here for an explanation of pseudo-MPECs

 
 Astrometry: 
     A1189Fj* C2024 07 066b3k`m@Nh?]k9YdmKIg[WaZdJRAstrometryQy:g;'2VtS^cr:F=W68
     A1189Fj  C2024 07 06SY[!uredacted;,clickJbB(#lM/xIevQRRK_6hWP4N)mc*hereBW68
     A1189Fj  C2024 07 06I/^k7an)5#[o!k1Sw783%I=nQfor!;:_^cnexplanationBU+*IiW68

Station data:
(W68) ATLAS Chile, Rio Hurtado  (S30.471010 W70.764980)  Chile.  Observers L.
   Denneau, R. Siverd, J. Tonry, H. Weiland. Measurers L. Denneau, N.
   Erasmus, A. Fitzsimmons, A. Lawrence, J. Robinson, R. Siverd, J. Tonry, H.
   Weiland. 0.5-m reflector + CCD.

Orbital elements:  A1189Fj
   Perihelion 2024 Apr 21.77245 +/- 67.9 TT = 18:32:19 (JD 2460422.27245)
Epoch 2024 Jul  6.0 TT = JDT 2460497.5   Earth MOID: 0.0235   Me: 0.0128
M 121.49573297 +/- 90               (J2000 ecliptic)             AutoNEOCP
n   1.61504303 +/- 0.725            Peri.  200.11276 +/- 70
a   0.71947103 +/- 0.215            Node   284.79360 +/- 35
e   0.5676136 +/- 0.228             Incl.   44.76554 +/- 34
P   0.61/222.90d           H 24.37  G  0.15   U 12.5  SR
q 0.31108948 +/- 0.234    Q 1.12785258 +/- 12.1
From 3 observations 2024 July 6 (13.3 min); mean residual 0".78
Residuals in arcseconds: 
240706 W68  .98+  .38-    240706 W68  1.4-  .55+    240706 W68  .44+  .17-    

Ephemerides (geocentric):
Date (UTC) HH   RA             Dec           delta  r     elong  mag " sig PA
---- --------  ------------   ------------  ------ ------ -----  --- --------
2024 07 12 07  16 23 11.644   +09 26 59.11  .08551 1.0680 125.1 21.1  49d  64
2024 07 12 08  16 22 54.402   +09 31 20.05  .08602 1.0682 125.0 21.1  49d  64
2024 07 12 09  16 22 37.365   +09 35 37.76  .08654 1.0684 124.8 21.1  49d  64
2024 07 12 10  16 22 20.531   +09 39 52.29  .08705 1.0685 124.7 21.1  49d  64
2024 07 12 11  16 22 03.896   +09 44 03.69  .08757 1.0687 124.6 21.1  49d  64
2024 07 12 12  16 21 47.456   +09 48 12.03  .08808 1.0689 124.5 21.1  49d  64
2024 07 12 13  16 21 31.209   +09 52 17.35  .08860 1.0690 124.3 21.2  49d  64
2024 07 12 14  16 21 15.151   +09 56 19.71  .08911 1.0692 124.2 21.2  49d  64
2024 07 12 15  16 20 59.279   +10 00 19.15  .08963 1.0694 124.1 21.2  49d  64
2024 07 12 16  16 20 43.591   +10 04 15.73  .09015 1.0695 124.0 21.2  49d  64
2024 07 12 17  16 20 28.082   +10 08 09.48  .09066 1.0697 123.8 21.2  49d  64
2024 07 12 18  16 20 12.751   +10 12 00.47  .09118 1.0699 123.7 21.2  49d  64
2024 07 12 19  16 19 57.594   +10 15 48.73  .09170 1.0700 123.6 21.3  49d  64
2024 07 12 20  16 19 42.610   +10 19 34.32  .09222 1.0702 123.5 21.3  49d  64
2024 07 12 21  16 19 27.794   +10 23 17.27  .09273 1.0704 123.4 21.3  49d  64
2024 07 12 22  16 19 13.145   +10 26 57.62  .09325 1.0705 123.3 21.3  49d  64
2024 07 12 23  16 18 58.659   +10 30 35.43  .09377 1.0707 123.1 21.3  49d  64
2024 07 13 00  16 18 44.335   +10 34 10.73  .09429 1.0709 123.0 21.3  49d  64
2024 07 13 01  16 18 30.169   +10 37 43.55  .09481 1.0710 122.9 21.3  49d  64
2024 07 13 02  16 18 16.160   +10 41 13.95  .09532 1.0712 122.8 21.4  49d  64
2024 07 13 03  16 18 02.305   +10 44 41.96  .09584 1.0714 122.7 21.4  49d  64
2024 07 13 04  16 17 48.601   +10 48 07.62  .09636 1.0715 122.6 21.4  49d  64
2024 07 13 05  16 17 35.047   +10 51 30.97  .09688 1.0717 122.5 21.4  49d  64
2024 07 13 06  16 17 21.639   +10 54 52.03  .09740 1.0718 122.4 21.4  49d  64
2024 07 13 07  16 17 08.377   +10 58 10.86  .09792 1.0720 122.3 21.4  49d  64
2024 07 13 08  16 16 55.257   +11 01 27.47  .09844 1.0722 122.2 21.4  49d  64
2024 07 13 09  16 16 42.278   +11 04 41.92  .09896 1.0723 122.0 21.5  48d  64
2024 07 13 10  16 16 29.437   +11 07 54.22  .09948 1.0725 121.9 21.5  48d  64
2024 07 13 11  16 16 16.733   +11 11 04.42  .10000 1.0726 121.8 21.5  48d  64
2024 07 13 12  16 16 04.164   +11 14 12.54  .10052 1.0728 121.7 21.5  48d  64
2024 07 13 13  16 15 51.726   +11 17 18.62  .10104 1.0730 121.6 21.5  48d  64
2024 07 13 14  16 15 39.420   +11 20 22.69  .10156 1.0731 121.5 21.5  48d  64
2024 07 13 15  16 15 27.242   +11 23 24.78  .10208 1.0733 121.4 21.5  48d  64
2024 07 13 16  16 15 15.191   +11 26 24.91  .10260 1.0735 121.3 21.6  48d  64
2024 07 13 17  16 15 03.265   +11 29 23.13  .10313 1.0736 121.2 21.6  48d  64
2024 07 13 18  16 14 51.462   +11 32 19.45  .10365 1.0738 121.1 21.6  48d  64
2024 07 13 19  16 14 39.781   +11 35 13.91  .10417 1.0739 121.0 21.6  48d  64
2024 07 13 20  16 14 28.219   +11 38 06.53  .10469 1.0741 120.9 21.6  48d  64
2024 07 13 21  16 14 16.776   +11 40 57.33  .10521 1.0743 120.8 21.6  48d  64
2024 07 13 22  16 14 05.449   +11 43 46.36  .10573 1.0744 120.7 21.6  48d  64
2024 07 13 23  16 13 54.237   +11 46 33.62  .10626 1.0746 120.7 21.6  48d  64
2024 07 14 00  16 13 43.139   +11 49 19.16  .10678 1.0747 120.6 21.7  48d  64
2024 07 14 01  16 13 32.152   +11 52 02.98  .10730 1.0749 120.5 21.7  48d  64
2024 07 14 02  16 13 21.275   +11 54 45.13  .10782 1.0750 120.4 21.7  48d  64
2024 07 14 03  16 13 10.507   +11 57 25.61  .10835 1.0752 120.3 21.7  48d  64
2024 07 14 04  16 12 59.847   +12 00 04.46  .10887 1.0754 120.2 21.7  48d  64
2024 07 14 05  16 12 49.292   +12 02 41.70  .10939 1.0755 120.1 21.7  48d  64
2024 07 14 06  16 12 38.841   +12 05 17.35  .10991 1.0757 120.0 21.7  48d  64